Dewpoint
-4 -4 -3 0 -4 -3 0 4 6 7 8 8 9 8 10 9 0 -7 -6 -5 -6 -7 -7 -7 -6 -5 -4 -2 -1 1 1 1 -2 -4 -5 -4 -4 -5 -6 -4 6 8 8
-4 -4 -4 -0 -1 -3 0 5 7 9 9 8 7 8 9 10 2 -4 -7 -4 -5 -6 -6 -6 -6 -7 -4 -1 0 1 2 -0 -3 -2 -2 0 -2 -3 -5 -6 -5 4 3
-3 -3 -4 -2 1 -1 -2 8 8 9 8 8 7 9 10 10 4 -0 -6 -6 -2 -2 -3 -4 -5 -5 -4 -3 0 1 2 1 -1 -2 1 1 -0 0 -3 -3 -4 -2 4
-4 -3 -3 -3 3 1 7 8 9 9 9 10 8 9 10 10 5 -4 -7 -7 -2 -1 -1 -1 -2 -4 -5 -3 -1 -0 -0 0 -1 -1 -4 -3 -2 -0 -0 -3 -3 -2 -1
-4 -3 -3 -2 4 8 9 7 8 9 10 10 7 7 10 10 5 -2 -4 -6 -3 -1 -1 -1 -0 -2 -3 -4 -2 0 1 1 -1 -3 -4 -3 -3 -2 0 -0 -3 -3 -2
-2 -3 -3 -0 6 9 8 10 10 10 10 10 9 9 10 11 5 -1 -2 -6 -6 -3 -1 -1 -1 -1 -1 -3 -4 -2 -0 -0 0 -1 -3 -3 -4 -4 -4 -1 -0 -1 -4
2 1 -1 5 7 9 10 11 10 10 10 10 9 10 10 9 5 0 -2 -3 -6 -5 -4 -3 -2 -1 -0 -1 -2 -4 -4 -2 -0 0 -0 -1 -2 -3 -3 -4 -3 -0 -1
2 3 3 7 9 9 10 10 10 10 10 10 10 9 10 9 6 4 1 -1 -4 -4 -3 -3 -4 -2 -1 -0 -1 -2 -4 -4 -2 0 1 1 0 -0 -0 -1 -2 -1 -1
1 2 3 7 8 9 10 10 9 9 8 10 9 10 10 9 8 7 6 4 1 1 1 -0 -2 -3 -2 -0 0 -1 -2 -4 -4 -2 1 0 1 2 1 1 1 -1 -0
-1 -0 1 5 7 8 9 10 10 10 8 7 9 10 10 10 10 10 9 8 7 6 4 4 1 -0 -1 -0 0 0 -1 -1 -3 -4 -3 -2 1 1 3 3 3 2 2
-3 -2 -2 -0 2 5 7 8 9 9 9 9 8 8 7 7 9 8 9 10 9 9 9 8 4 3 2 1 1 0 -0 -1 -1 -2 -3 -4 -3 -1 1 2 3 3 2
-4 -3 -3 -2 -1 0 3 6 8 9 9 9 9 9 9 8 4 5 8 6 8 8 8 9 9 9 7 3 2 1 0 0 0 -1 -2 -4 -4 -3 -2 0 1 2 2
-5 -5 -4 -3 -2 -0 -1 -1 2 5 8 8 8 9 9 9 9 8 8 8 6 7 7 9 8 9 8 8 6 3 2 2 1 1 -0 -2 -2 2 -1 -1 -2 -2 -1
-6 -5 -5 -4 -3 -0 0 0 -1 0 1 5 8 8 8 8 8 9 9 9 8 8 8 8 8 8 8 8 8 7 7 6 5 3 2 2 3 1 -1 -2 -2 -3 -3
-7 -6 -6 -5 -4 -1 0 1 1 1 1 1 1 2 4 7 7 7 8 8 7 8 7 8 8 8 7 7 7 7 7 6 6 5 5 4 2 0 -0 -1 -2 -2 -1
-8 -7 -7 -6 -5 -4 -1 0 1 1 0 1 1 1 0 2 5 7 7 7 7 7 8 7 7 7 7 7 7 7 6 6 6 6 5 2 1 2 2 0 0 -0 -1
-8 -8 -8 -8 -6 -5 -3 -1 0 1 0 -0 -1 -0 1 3 4 6 7 6 6 6 5 6 7 6 6 6 6 7 6 6 6 5 3 3 2 2 1 2 -0 -2 -5
-9 -9 -8 -7 -6 -5 -3 -1 -0 -0 0 -1 -1 -2 -2 -0 1 4 5 5 5 5 5 4 5 6 5 5 6 6 5 5 5 4 4 3 3 3 3 2 -1 -4 -1
-10 -9 -8 -7 -7 -5 -4 -3 -2 -1 -1 -1 -2 -2 -3 -4 -2 0 3 4 5 5 5 4 5 5 4 5 6 5 5 5 4 4 3 4 3 3 2 0 -0 0 1
-10 -10 -8 -8 -7 -6 -4 -4 -3 -2 -2 -2 -3 -3 -3 -3 -2 -1 1 3 3 4 4 4 4 4 5 5 5 5 4 4 4 4 3 3 3 2 1 0 0 1 0
-11 -10 -9 -9 -8 -7 -6 -5 -5 -4 -4 -3 -4 -4 -3 -3 -1 -1 1 2 3 3 4 3 3 4 5 4 4 4 4 4 4 3 3 2 2 1 1 1 1 0 0
-11 -11 -10 -10 -9 -8 -8 -8 -7 -6 -5 -4 -4 -4 -4 -3 -2 -0 1 2 2 3 3 4 4 4 4 4 4 4 3 3 3 3 2 2 1 0 0 0 -1 -2 -2
-12 -11 -11 -10 -10 -9 -10 -9 -9 -8 -7 -6 -5 -5 -4 -4 -3 -1 -0 0 1 2 2 3 4 4 4 3 3 3 2 2 1 1 2 1 1 -0 -1 -1 -2 -6 -8
-12 -12 -11 -11 -11 -10 -10 -9 -9 -9 -9 -8 -7 -6 -5 -5 -4 -2 -1 -1 -0 0 1 2 2 2 3 2 2 1 1 1 0 0 -0 -0 -1 -1 -2 -3 -6 -10 -5
-12 -12 -12 -11 -11 -10 -10 -10 -10 -10 -10 -9 -9 -7 -6 -5 -5 -4 -2 -2 -1 -1 -1 -0 0 1 1 1 1 1 1 1 0 -1 -1 -2 -2 -3 -4 -6 -9 -5 -8
-13 -12 -12 -12 -12 -11 -10 -10 -10 -10 -10 -10 -10 -9 -7 -6 -6 -5 -4 -3 -3 -2 -2 -1 -1 -1 -1 -1 -0 -0 -0 -0 -1 -2 -2 -3 -3 -3 -5 -6 -6 -7 -9
Wind_Speed
27 24 24 24 30 33 36 38 36 30 40 43 47 44 43 36 33 33 33 32 30 29 28 27 26 26 25 26 25 25 25 25 24 24 20 16 15 16 18 18 21 18 16
20 23 26 25 28 28 35 37 37 29 33 40 52 45 42 39 37 37 36 34 32 30 29 28 27 26 27 28 28 29 28 26 26 19 17 11 12 14 15 17 18 19 20
18 18 24 26 26 28 32 36 39 31 31 39 44 41 34 40 38 39 36 35 33 31 29 27 28 28 29 28 30 30 30 28 29 24 9 7 8 15 16 16 16 17 18
15 16 19 23 22 25 26 33 36 39 38 45 47 48 47 49 44 40 38 38 34 32 31 29 27 27 28 29 30 29 29 27 28 26 21 11 10 10 10 18 18 17 18
10 12 16 19 15 17 22 24 31 32 46 58 51 48 47 46 41 41 41 38 35 32 31 30 28 29 29 29 30 31 30 29 28 30 29 16 11 11 9 13 21 21 20
4 3 8 14 12 13 17 15 19 32 35 37 43 50 49 47 42 39 38 36 36 35 33 31 31 31 29 29 29 30 31 29 29 28 27 26 17 14 10 7 15 18 22
10 6 5 4 7 12 17 17 17 22 28 32 36 43 48 41 36 35 36 37 37 37 34 34 33 33 31 29 29 30 31 32 31 31 29 27 25 19 14 11 12 16 18
15 14 11 8 9 9 12 15 15 14 21 25 30 35 33 32 32 33 32 34 36 35 34 34 34 34 33 31 30 31 31 32 32 32 31 29 27 26 22 17 14 11 14
18 17 13 12 12 11 10 12 14 16 11 21 19 29 27 31 31 30 29 32 34 34 33 33 34 34 33 32 32 32 31 32 33 34 33 30 29 28 27 24 20 17 12
19 19 17 14 12 12 11 10 12 14 16 11 13 10 10 22 32 32 33 32 31 32 33 33 35 35 34 33 34 33 33 33 33 34 33 32 32 29 29 27 25 25 20
19 19 18 16 14 12 10 10 10 10 11 16 17 19 18 18 21 15 24 31 31 31 31 33 34 34 34 34 35 33 33 35 34 34 34 31 31 32 30 29 31 29 25
18 18 18 18 18 15 11 9 11 10 12 14 13 11 16 21 17 20 10 10 15 18 17 18 23 32 37 39 35 35 37 36 36 35 34 32 32 31 30 32 32 30 29
19 19 19 20 19 17 15 13 11 8 10 11 10 10 11 15 24 21 19 20 18 17 18 17 20 21 27 31 41 37 36 36 35 38 36 37 34 32 30 29 32 30 29
20 20 21 21 19 20 17 16 13 11 10 9 12 12 11 11 15 17 18 17 14 15 16 16 18 20 17 22 30 40 44 42 44 46 41 38 32 29 30 30 28 26 26
22 21 22 21 20 18 19 17 17 12 10 10 9 9 13 14 13 16 16 16 16 18 18 19 17 15 17 19 23 31 36 41 43 40 39 33 30 29 29 26 28 26 24
21 21 20 20 20 18 17 16 14 15 12 10 8 6 3 6 8 9 12 13 14 17 18 18 17 19 18 19 20 22 27 34 35 33 33 31 31 29 27 25 23 24 25
21 22 21 21 19 18 16 14 14 12 9 9 9 7 5 2 5 7 8 11 14 15 14 18 19 18 19 19 21 20 23 26 28 30 33 33 33 31 28 26 23 24 23
22 22 23 21 18 17 15 10 10 10 9 8 7 6 4 2 2 5 8 11 11 13 16 17 17 19 17 18 18 21 20 22 25 27 32 34 32 31 29 27 30 29 25
20 20 21 19 18 16 15 13 11 10 9 8 8 8 7 5 5 5 8 12 13 14 14 15 15 15 17 17 17 17 18 22 24 27 33 33 31 29 29 31 30 29 27
19 20 19 17 15 15 14 13 12 12 11 10 9 10 10 9 6 6 8 10 11 10 10 11 13 13 14 16 17 17 17 20 24 29 32 33 31 29 30 30 30 28 26
19 18 17 17 17 16 14 12 12 12 12 12 10 11 11 11 9 7 8 11 13 12 12 12 11 13 13 14 16 17 16 18 22 28 31 33 33 32 31 31 27 24 23
19 19 18 18 17 16 14 13 14 14 14 13 12 12 11 11 11 9 7 10 12 13 15 15 14 13 13 14 15 16 15 15 18 23 30 34 34 34 31 28 24 19 20
18 18 17 17 16 16 15 15 17 16 15 15 13 14 12 12 11 11 10 9 10 11 13 15 15 15 14 14 14 15 16 17 18 21 29 34 34 32 30 25 23 23 21
17 18 18 17 18 18 17 16 16 17 16 16 14 14 13 12 12 11 11 12 11 11 11 12 13 14 15 15 16 20 21 21 22 22 32 35 33 31 27 26 25 24 18
19 18 17 18 20 20 18 17 17 17 17 18 17 15 14 12 13 12 12 12 12 12 12 12 12 13 15 16 17 20 22 24 24 26 34 37 34 30 29 29 27 23 20
18 18 18 20 21 20 18 16 16 16 16 16 16 16 14 14 13 14 13 13 12 13 14 14 15 13 15 16 16 19 21 20 24 29 41 39 36 35 35 30 27 25 23
Wind_Direction
256 245 232 227 233 237 230 227 235 235 222 219 218 222 224 215 212 210 211 205 204 200 198 199 200 199 199 200 196 194 192 186 184 174 167 165 170 176 181 186 195 188 189
253 243 226 222 228 234 228 222 229 228 216 218 214 221 216 217 215 209 208 205 203 202 202 202 202 203 201 200 200 199 192 193 184 177 165 154 170 181 183 189 192 201 205
256 245 223 219 224 230 233 220 227 229 239 229 221 217 210 206 206 207 205 207 206 204 206 206 206 205 206 204 205 202 204 196 188 187 174 161 179 175 189 192 192 194 198
254 241 221 215 218 233 228 225 227 233 245 230 209 209 208 205 211 209 206 206 206 206 209 210 210 211 211 208 210 209 211 212 205 195 198 194 188 173 177 200 201 201 201
259 241 224 214 219 216 223 235 245 241 221 201 208 213 217 212 211 208 208 207 207 210 213 214 214 214 214 214 214 214 213 216 217 212 205 206 194 181 167 184 202 205 208
344 233 205 204 211 209 218 229 217 194 192 202 208 213 216 210 211 211 208 209 211 212 213 215 217 217 219 218 219 220 221 221 218 221 221 219 213 211 203 177 198 202 212
33 57 97 117 188 201 215 218 207 210 212 211 217 217 211 208 215 217 214 212 212 213 215 216 216 217 220 220 222 223 225 226 225 226 227 228 230 238 233 231 209 195 215
42 51 61 93 132 167 204 217 209 206 219 221 220 212 207 208 214 217 216 218 218 219 219 219 220 220 221 221 222 225 227 230 230 231 231 232 236 238 242 247 238 207 219
39 46 61 97 122 140 159 195 214 205 212 225 212 223 218 217 214 221 221 223 221 221 223 223 224 224 224 224 225 226 227 230 231 232 233 234 237 238 242 245 249 243 221
39 40 46 75 98 115 138 151 167 199 198 209 220 224 211 238 231 227 223 224 226 228 226 224 223 225 226 226 227 228 229 231 232 233 233 233 236 239 242 244 246 244 245
36 37 36 50 70 93 135 143 161 182 191 201 209 207 210 242 245 233 228 234 234 235 229 228 226 227 229 230 230 231 232 232 232 233 233 234 235 237 239 243 245 246 240
32 35 34 37 55 69 86 126 149 143 157 190 197 187 206 199 227 263 251 257 244 233 238 227 232 228 232 227 227 232 234 233 233 234 232 232 232 231 240 242 244 244 243
26 26 29 32 37 49 56 76 104 129 168 179 173 182 194 206 218 216 218 227 229 242 239 233 238 233 224 231 225 228 233 232 235 237 234 229 225 242 235 239 243 238 237
19 18 19 21 27 41 52 61 74 89 106 148 172 173 175 190 197 203 203 206 206 214 223 226 224 224 228 235 238 234 236 230 228 230 230 236 236 232 231 232 232 230 229
11 10 8 7 12 35 45 63 71 66 78 104 128 157 184 195 203 211 209 217 212 219 223 232 236 238 231 233 231 228 232 235 234 236 236 233 227 229 236 237 232 225 220
3 360 0 360 2 10 30 42 60 64 65 61 76 100 142 177 189 206 217 218 213 221 222 229 234 235 235 240 239 239 238 237 236 235 231 222 222 226 236 225 233 239 225
360 356 356 353 352 357 6 31 34 42 48 60 62 56 75 137 193 197 212 222 226 228 242 234 230 234 234 237 237 237 240 235 233 229 223 219 222 227 224 232 212 197 194
359 357 357 352 354 354 2 15 27 14 19 22 25 27 13 12 222 223 221 213 215 227 239 243 237 234 234 239 238 232 233 229 230 231 228 223 229 223 225 221 201 200 207
354 0 357 351 352 354 355 6 5 353 345 355 358 355 353 337 306 268 244 247 241 237 235 235 240 241 241 240 234 230 229 228 230 233 231 231 227 226 217 209 210 212 216
358 2 2 359 348 357 357 353 350 340 334 336 343 340 340 334 310 288 270 262 256 245 240 237 230 233 230 237 237 237 232 231 231 230 227 223 225 222 210 212 218 224 226
357 2 8 2 3 360 354 346 331 319 322 321 327 322 318 315 306 288 269 264 258 254 250 251 246 239 233 239 241 241 242 238 234 226 220 217 211 212 210 213 225 227 221
359 9 2 359 0 359 357 348 334 326 319 315 314 313 307 306 299 287 265 253 258 254 251 250 250 248 245 244 247 247 247 245 243 236 223 212 207 209 211 214 213 203 196
1 11 2 354 0 359 7 352 338 333 326 320 311 305 304 300 296 285 271 253 247 252 253 251 251 248 243 240 241 245 245 244 243 239 225 208 208 208 210 208 196 189 192
357 5 5 1 360 3 7 355 346 339 335 326 317 308 304 295 290 280 272 265 260 254 256 254 253 252 247 241 236 233 237 236 235 233 214 205 204 206 200 189 187 187 198
357 359 1 360 359 7 3 351 345 342 339 336 333 321 311 304 290 280 269 258 251 255 250 250 255 256 254 248 243 241 238 238 231 218 202 192 195 190 185 188 184 193 191
355 352 354 357 358 360 357 354 350 345 340 335 334 330 321 310 305 293 278 262 258 240 243 244 242 243 249 252 253 243 243 244 233 213 193 191 192 190 190 188 189 189 195
Height
1449 1452 1454 1456 1457 1459 1462 1465 1470 1472 1477 1479 1483 1491 1495 1501 1504 1509 1516 1519 1523 1528 1531 1535 1538 1541 1544 1549 1552 1554 1556 1559 1562 1564 1568 1571 1574 1575 1577 1580 1582 1583 1585
1440 1441 1445 1447 1449 1451 1453 1457 1460 1463 1467 1474 1478 1486 1489 1495 1500 1503 1508 1515 1519 1524 1528 1531 1535 1539 1542 1545 1549 1552 1555 1558 1560 1564 1567 1570 1574 1574 1576 1579 1580 1581 1582
1433 1433 1436 1439 1442 1444 1446 1449 1453 1457 1461 1465 1474 1481 1487 1486 1491 1497 1503 1511 1515 1519 1525 1528 1532 1536 1540 1541 1547 1549 1553 1555 1558 1562 1567 1569 1568 1572 1575 1577 1578 1580 1580
1426 1427 1429 1434 1437 1438 1441 1444 1448 1450 1452 1455 1464 1471 1475 1476 1486 1493 1498 1504 1511 1516 1520 1525 1529 1533 1537 1539 1543 1546 1550 1553 1556 1558 1561 1563 1563 1567 1572 1574 1575 1579 1579
1422 1423 1424 1429 1434 1437 1437 1437 1439 1439 1438 1444 1454 1464 1471 1478 1483 1488 1494 1500 1507 1512 1517 1521 1525 1529 1532 1536 1540 1544 1547 1550 1554 1556 1557 1560 1563 1564 1567 1568 1570 1573 1576
1422 1421 1421 1424 1429 1433 1435 1435 1435 1435 1437 1444 1451 1460 1466 1471 1477 1482 1490 1497 1501 1506 1511 1516 1521 1525 1529 1532 1537 1541 1544 1546 1550 1554 1555 1557 1560 1563 1565 1566 1567 1568 1570
1423 1422 1422 1425 1428 1431 1434 1435 1435 1437 1440 1444 1449 1454 1457 1463 1473 1480 1486 1491 1496 1500 1505 1510 1515 1519 1524 1528 1532 1536 1539 1543 1545 1549 1552 1555 1557 1560 1563 1564 1566 1566 1565
1427 1425 1424 1425 1427 1431 1434 1436 1437 1438 1441 1444 1447 1446 1451 1462 1470 1477 1482 1487 1491 1495 1500 1505 1510 1515 1519 1523 1527 1531 1534 1538 1541 1544 1547 1549 1552 1555 1559 1561 1562 1564 1563
1432 1429 1427 1426 1427 1430 1432 1434 1437 1439 1442 1439 1448 1451 1455 1461 1467 1473 1479 1484 1489 1491 1496 1501 1506 1509 1512 1518 1522 1525 1529 1533 1536 1540 1542 1543 1547 1549 1553 1556 1558 1561 1560
1438 1434 1433 1430 1429 1430 1432 1434 1437 1440 1441 1444 1446 1446 1452 1457 1465 1469 1473 1480 1485 1487 1491 1495 1499 1503 1508 1512 1516 1520 1524 1526 1529 1534 1536 1537 1541 1544 1548 1551 1553 1555 1557
1444 1442 1440 1436 1434 1433 1433 1434 1436 1439 1441 1444 1447 1450 1452 1456 1456 1461 1467 1473 1479 1482 1484 1488 1493 1497 1502 1507 1510 1514 1517 1520 1523 1527 1530 1531 1534 1538 1541 1543 1548 1549 1551
1450 1448 1445 1441 1438 1437 1437 1437 1437 1439 1440 1443 1445 1450 1451 1455 1460 1460 1465 1470 1473 1473 1476 1479 1485 1489 1495 1498 1502 1507 1510 1515 1518 1522 1524 1525 1528 1531 1532 1538 1542 1544 1546
1454 1452 1449 1446 1442 1440 1440 1440 1439 1440 1440 1443 1445 1448 1451 1454 1457 1459 1465 1467 1466 1466 1475 1478 1482 1484 1485 1489 1494 1499 1502 1508 1512 1517 1518 1518 1519 1523 1526 1531 1536 1536 1539
1459 1456 1453 1449 1448 1446 1443 1441 1441 1442 1442 1442 1443 1444 1448 1451 1454 1459 1462 1463 1461 1466 1471 1475 1479 1480 1479 1483 1486 1492 1495 1498 1500 1506 1509 1511 1512 1516 1521 1524 1529 1531 1533
1462 1460 1457 1454 1450 1448 1447 1445 1444 1444 1444 1445 1447 1448 1449 1451 1453 1457 1455 1459 1459 1464 1469 1471 1471 1471 1474 1478 1482 1486 1490 1492 1493 1497 1499 1504 1508 1514 1516 1519 1523 1526 1529
1467 1464 1460 1457 1455 1452 1449 1448 1446 1447 1447 1447 1446 1446 1447 1449 1450 1451 1455 1455 1457 1462 1464 1466 1468 1470 1473 1475 1478 1481 1484 1486 1489 1491 1495 1499 1504 1508 1512 1516 1518 1523 1524
1469 1466 1461 1458 1457 1455 1452 1449 1448 1447 1448 1448 1448 1448 1448 1449 1449 1450 1451 1453 1458 1459 1462 1463 1466 1469 1470 1472 1475 1477 1479 1481 1483 1486 1491 1494 1498 1501 1505 1509 1513 1517 1521
1471 1468 1463 1460 1457 1455 1452 1450 1448 1448 1447 1446 1445 1446 1447 1448 1449 1450 1453 1455 1456 1459 1460 1462 1462 1463 1465 1468 1470 1472 1473 1475 1478 1482 1486 1490 1493 1497 1499 1503 1509 1514 1517
1473 1468 1464 1462 1459 1455 1451 1448 1447 1448 1448 1447 1445 1445 1444 1444 1445 1446 1449 1452 1453 1454 1455 1456 1457 1459 1461 1463 1465 1466 1468 1470 1473 1478 1481 1485 1489 1493 1496 1501 1505 1509 1512
1473 1469 1466 1462 1462 1455 1450 1449 1447 1448 1449 1447 1443 1444 1443 1442 1443 1443 1445 1447 1448 1449 1450 1452 1453 1455 1457 1459 1460 1462 1463 1466 1469 1473 1476 1481 1485 1489 1494 1498 1502 1506 1508
1476 1470 1467 1466 1459 1454 1453 1453 1453 1451 1449 1449 1443 1442 1442 1441 1440 1439 1442 1444 1445 1446 1447 1448 1450 1452 1453 1454 1456 1458 1460 1462 1464 1467 1471 1476 1482 1487 1491 1495 1499 1503 1505
1478 1469 1468 1466 1462 1459 1455 1454 1455 1454 1453 1450 1444 1442 1441 1439 1438 1438 1438 1439 1441 1442 1444 1444 1446 1447 1448 1450 1452 1454 1456 1458 1461 1464 1467 1472 1477 1483 1488 1492 1496 1501 1503
1478 1472 1471 1470 1466 1462 1455 1455 1454 1452 1450 1447 1443 1442 1440 1438 1437 1436 1436 1437 1437 1438 1440 1441 1443 1444 1445 1447 1448 1450 1452 1455 1458 1462 1465 1469 1475 1481 1485 1491 1494 1497 1500
1477 1472 1472 1471 1467 1462 1454 1455 1455 1454 1450 1448 1444 1442 1439 1437 1436 1435 1435 1435 1435 1436 1436 1437 1439 1441 1442 1443 1445 1447 1449 1452 1455 1460 1464 1468 1473 1478 1484 1487 1491 1495 1498
1474 1472 1470 1470 1469 1459 1458 1458 1454 1451 1448 1445 1441 1438 1436 1434 1434 1434 1434 1434 1434 1434 1434 1435 1437 1438 1440 1441 1443 1445 1446 1448 1452 1456 1461 1465 1469 1475 1479 1483 1489 1493 1496
1471 1473 1470 1465 1463 1461 1462 1457 1454 1452 1448 1445 1442 1438 1435 1433 1432 1431 1431 1431 1430 1430 1431 1432 1434 1436 1438 1440 1442 1443 1445 1447 1450 1454 1456 1460 1465 1469 1474 1480 1485 1489 1494